EW5311 Weather Reports


time (UTC)temp
F
wind
direction
speed
knots
gust
knots
rain 1hr
in
rain 24hr
in
rain mn
in
humidity
%
barometer
mb
20260507184534 55 359 3.5 11.3 0.00 0.00 0.00 40 1008.1
20260507183033 56 262 3.5 13.0 0.00 0.00 0.00 39 1008.2
20260507181518 55 231 7.8 13.0 0.00 0.00 0.00 41 1008.3
20260507180017 54 214 6.1 15.6 0.00 0.00 0.00 41 1008.4
20260507174527 54 314 7.0 12.2 0.00 0.00 0.00 41 1008.6
20260507173019 55 305 5.2 14.8 0.00 0.00 0.00 40 1008.8
20260507171517 55 307 5.2 17.4 0.00 0.00 0.00 39 1008.9
20260507170010 54 298 4.3 13.9 0.00 0.00 0.00 44 1009.1
20260507164506 53 299 3.5 11.3 0.00 0.00 0.00 46 1009.4
20260507163005 52 291 4.3 13.0 0.00 0.00 0.00 45 1009.5
20260507161546 52 237 5.2 11.3 0.00 0.00 0.00 47 1009.7
20260507160044 52 17 5.2 8.7 0.00 0.00 0.00 49 1009.8
20260507154523 52 224 5.2 13.9 0.00 0.00 0.00 48 1009.9
20260507153022 51 255 4.3 12.2 0.00 0.00 0.00 49 1010.1
20260507151503 52 249 4.3 9.6 0.00 0.00 0.00 50 1010.3
20260507150001 52 322 5.2 9.6 0.00 0.00 0.00 50 1010.4
20260507144542 51 204 6.1 13.0 0.00 0.00 0.00 51 1010.6
20260507143042 50 359 6.1 14.8 0.00 0.00 0.00 53 1010.9
20260507141525 49 239 2.6 13.0 0.00 0.00 0.00 56 1010.9
20260507140024 49 310 5.2 11.3 0.00 0.02 0.00 55 1011.0
20260507134523 49 318 7.8 16.5 0.00 0.02 0.00 54 1011.2
20260507133020 48 216 0.0 5.2 0.00 0.02 0.00 61 1011.1
20260507131523 47 31 0.9 3.5 0.00 0.02 0.00 63 1011.1
20260507130013 45 293 0.0 3.5 0.00 0.05 0.00 68 1011.3
20260507124511 43 316 1.7 2.6 0.00 0.05 0.00 76 1011.3
20260507123108 41 289 1.7 3.5 0.00 0.05 0.00 85 1011.5
20260507121509 38 301 0.0 2.6 0.00 0.05 0.00 94 1011.4
20260507120100 36 302 0.0 2.6 0.00 0.15 0.00 95 1011.3
20260507114611 34 301 0.9 2.6 0.00 0.15 0.00 95 1011.4
20260507113053 33 301 0.0 1.7 0.00 0.15 0.00 95 1011.3
20260507111551 32 299 0.0 1.7 0.00 0.15 0.00 94 1011.2
20260507110052 31 299 0.0 1.7 0.00 0.20 0.00 94 1011.1
20260507104546 31 301 0.9 1.7 0.00 0.20 0.00 94 1011.0
20260507103045 31 301 0.9 1.7 0.00 0.20 0.00 93 1010.9
20260507101541 31 301 0.0 0.9 0.00 0.20 0.00 93 1010.7
20260507100030 31 301 0.0 0.9 0.00 0.28 0.00 93 1010.6
20260507094518 31 301 0.9 1.7 0.00 0.28 0.00 93 1010.6
20260507093100 32 359 0.0 0.9 0.00 0.28 0.00 93 1010.4
20260507091600 32 302 0.9 1.7 0.00 0.28 0.00 92 1010.6
20260507090039 33 301 0.0 1.7 0.00 0.30 0.00 91 1010.4
20260507084536 33 301 0.0 1.7 0.00 0.30 0.00 91 1010.5
20260507083016 34 301 0.0 0.9 0.00 0.30 0.00 90 1010.6
20260507081532 34 302 0.0 0.9 0.00 0.30 0.00 89 1010.6
20260507080057 35 301 0.0 1.7 0.00 0.38 0.00 88 1010.6
20260507074605 36 302 0.0 0.9 0.00 0.38 0.00 86 1010.5
20260507073046 37 302 0.0 0.9 0.00 0.38 0.00 84 1010.3
20260507071543 38 301 0.0 0.0 0.00 0.38 0.00 81 1010.3
20260507070038 40 301 0.0 0.9 0.00 0.43 0.00 80 1010.3
20260507064534 41 297 0.0 1.7 0.00 0.43 0.00 78 1010.4
20260507063031 42 302 0.9 2.6 0.00 0.43 0.00 76 1010.5
20260507061629 42 300 1.7 3.5 0.00 0.43 0.00 74 1010.5
20260507060016 42 301 1.7 4.3 0.00 0.43 0.00 73 1010.7
20260507054515 43 304 1.7 4.3 0.00 0.43 0.00 73 1010.9
20260507053013 43 295 0.9 3.5 0.00 0.43 0.00 74 1010.8
20260507051511 43 292 1.7 4.3 0.00 0.43 0.00 72 1010.9
20260507050023 43 296 1.7 5.2 0.00 0.43 0.43 72 1010.9
20260507044508 43 296 2.6 4.3 0.00 0.43 0.43 72 1010.9
20260507043006 44 298 1.7 4.3 0.00 0.43 0.43 72 1010.9
20260507041504 44 297 1.7 7.0 0.00 0.43 0.43 71 1010.9
20260507040051 44 291 1.7 3.5 0.00 0.43 0.43 72 1010.7
20260507034557 44 293 0.9 3.5 0.00 0.43 0.43 73 1010.6
20260507033053 44 283 0.9 2.6 0.00 0.43 0.43 73 1010.6
20260507031603 44 303 0.9 3.5 0.00 0.43 0.43 74 1010.3
20260507030053 44 301 0.0 0.9 0.00 0.43 0.43 77 1010.2
20260507024546 44 302 0.0 1.7 0.00 0.43 0.43 76 1010.3
20260507023042 45 301 0.9 2.6 0.00 0.43 0.43 71 1010.1
20260507021540 45 301 1.7 4.3 0.00 0.43 0.43 66 1010.1
20260507020039 46 301 1.7 4.3 0.00 0.43 0.43 65 1010.2
20260507014546 46 287 2.6 7.8 0.00 0.43 0.43 68 1010.2
20260507013023 46 287 0.0 0.9 0.00 0.43 0.43 72 1010.3
20260507011522 46 287 0.9 4.3 0.00 0.43 0.43 69 1010.4
20260507010020 47 291 1.7 3.5 0.00 0.43 0.43 66 1010.3
20260507004521 47 286 1.7 5.2 0.00 0.43 0.43 64 1010.0
20260507003019 47 280 5.2 8.7 0.00 0.43 0.43 64 1010.3
20260507001521 48 315 2.6 7.0 0.00 0.43 0.43 62 1009.9
20260507000011 48 295 1.7 7.0 0.00 0.43 0.43 62 1009.6
20260506234508 49 300 2.6 5.2 0.00 0.43 0.43 64 1009.3
20260506233102 49 301 3.5 9.6 0.00 0.43 0.43 65 1008.8
20260506231544 50 287 3.5 9.6 0.00 0.43 0.43 74 1008.3
20260506230033 50 297 1.7 3.5 0.00 0.43 0.43 77 1008.3
20260506224532 50 283 0.9 5.2 0.00 0.43 0.43 77 1008.1
20260506223030 50 252 4.3 8.7 0.00 0.43 0.43 76 1008.1
20260506221530 50 287 2.6 5.2 0.00 0.43 0.43 78 1007.8
20260506220029 50 291 2.6 4.3 0.00 0.43 0.43 81 1008.0
20260506214526 50 282 0.9 7.0 0.00 0.43 0.43 82 1007.6
20260506213025 49 268 0.9 6.1 0.00 0.43 0.43 81 1007.4
20260506211523 50 297 1.7 3.5 0.00 0.43 0.43 81 1007.1
20260506210009 50 314 3.5 7.8 0.00 0.43 0.43 81 1007.0
20260506204505 50 266 5.2 7.8 0.00 0.43 0.43 81 1007.1
20260506203046 50 311 4.3 9.6 0.00 0.43 0.43 81 1007.1
20260506201543 50 260 3.5 7.8 0.00 0.43 0.43 83 1006.9
20260506200023 50 260 3.5 7.8 0.00 0.43 0.43 85 1006.7
20260506194521 50 258 6.1 10.4 0.00 0.43 0.43 85 1006.5
20260506193106 50 295 7.0 10.4 0.00 0.43 0.43 85 1006.3
20260506191558 51 235 3.5 7.0 0.00 0.43 0.43 86 1006.0
20260506190050 50 303 2.6 7.0 0.00 0.43 0.43 86 1006.0